KISSLEGG Weather Reports


time (UTC)temp
C
wind
direction
speed
KPH
gust
KPH
rain 1hr
cm
rain 24hr
cm
rain mn
cm
humidity
%
barometer
mb
20260507150210 13 9 0.0 0.0 0.00 0.00 0.18 76 1014.3
20260507143212 13 360 0.0 0.0 0.00 0.00 0.18 77 1014.3
20260507140210 12 351 0.0 0.0 0.00 0.00 0.18 77 1014.3
20260507133210 15 360 0.0 0.0 0.00 0.00 0.18 66 1014.4
20260507130210 13 360 0.0 0.0 0.00 0.00 0.18 69 1014.4
20260507123210 14 360 0.0 0.0 0.00 0.00 0.18 72 1014.4
20260507120211 12 360 0.0 0.0 0.00 0.00 0.18 76 1014.4
20260507113210 13 360 0.0 0.0 0.00 0.00 0.18 77 1014.5
20260507110210 11 360 0.0 0.0 0.00 0.00 0.18 84 1014.7
20260507103216 11 360 0.0 0.0 0.00 0.00 0.18 86 1014.7
20260507100212 10 360 0.0 0.0 0.00 0.00 0.18 89 1014.7
20260507093211 10 360 0.0 0.0 0.00 0.00 0.18 91 1014.6
20260507090211 9 360 0.0 0.0 0.00 0.00 0.18 93 1014.3
20260507083212 8 360 0.0 0.0 0.00 0.00 0.18 94 1014.2
20260507080211 8 360 0.0 0.0 0.00 0.00 0.18 95 1014.1
20260507073212 8 360 0.0 0.0 0.00 0.00 0.15 95 1014.0
20260507070212 7 360 0.0 0.0 0.00 0.00 0.15 95 1013.6
20260507063211 7 360 0.0 0.0 0.00 0.00 0.15 95 1013.4
20260507060211 8 360 0.0 0.0 0.00 0.00 0.05 94 1013.1
20260507053211 7 360 0.0 0.0 0.00 0.00 0.00 94 1012.9
20260507050213 7 360 0.0 0.0 0.00 0.00 0.00 93 1012.4
20260507043211 7 360 0.0 0.0 0.00 0.00 0.00 93 1012.1
20260507040216 7 360 0.0 0.0 0.00 0.00 0.00 94 1011.8
20260507033211 7 360 0.0 0.0 0.00 0.00 0.00 93 1011.6
20260507030211 7 360 0.0 0.0 0.00 0.00 0.00 92 1011.6
20260507023211 7 360 0.0 0.0 0.00 0.00 0.00 93 1011.5
20260507020211 7 360 0.0 0.0 0.00 0.00 0.00 94 1011.4
20260507013212 7 360 0.0 0.0 0.00 0.00 0.00 95 1011.2
20260507010211 6 360 0.0 0.0 0.00 0.00 0.00 95 1011.2
20260507003209 6 360 0.0 0.0 0.00 0.00 0.00 94 1011.0
20260507000209 6 360 0.0 0.0 0.00 0.00 0.00 94 1011.0
20260506233209 7 244 0.0 0.0 0.00 0.00 0.00 94 1011.0
20260506230209 7 360 0.0 0.0 0.00 0.00 0.00 93 1010.8
20260506223209 7 360 0.0 0.0 0.00 0.00 0.00 93 1010.7
20260506220209 7 360 0.0 0.0 0.00 0.00 0.00 93 1010.6
20260506213209 8 360 0.0 0.0 0.00 0.00 0.15 92 1010.4
20260506210210 8 360 0.0 0.0 0.00 0.00 0.15 92 1010.3
20260506203210 8 360 0.0 0.0 0.00 0.00 0.15 92 1010.0
20260506200210 8 211 0.0 0.0 0.00 0.00 0.15 92 1009.9
20260506193215 8 193 0.0 0.0 0.00 0.00 0.15 92 1009.9
20260506190211 8 360 0.0 0.0 0.00 0.00 0.15 92 1009.2
20260506183209 8 211 0.0 0.0 0.00 0.00 0.15 91 1008.9
20260506180216 8 360 0.0 0.0 0.00 0.00 0.15 90 1008.6
20260506173210 9 360 0.0 0.0 0.00 0.00 0.15 90 1008.4
20260506170215 9 360 0.0 0.0 0.00 0.00 0.15 91 1008.1
20260506163210 9 360 0.0 0.0 0.00 0.00 0.15 91 1007.9
20260506160210 9 360 0.0 0.0 0.00 0.00 0.15 92 1008.1
20260506153210 9 360 0.0 0.0 0.00 0.00 0.15 93 1007.2